Time,TemperatureF,DewpointF,PressureIn,WindDirection,WindDirectionDegrees,WindSpeedMPH,WindSpeedGustMPH,Humidity,HourlyPrecipIn,Conditions,Clouds,dailyrainin,SoftwareType,DateUTC
2013-06-05 00:01:00,52.5,48.2,30.03,North,0,2.2,3.6,85,0.00,,---,0.00,VWS V14.01,2013-06-05 07:01:00,
2013-06-05 00:06:00,52.7,48.3,30.03,WSW,248,2.5,3.6,85,0.00,,---,0.00,VWS V14.01,2013-06-05 07:06:00,
2013-06-05 00:11:00,52.7,48.6,30.06,SSE,158,1.6,3.8,86,0.00,,---,0.00,VWS V14.01,2013-06-05 07:11:00,
2013-06-05 00:16:00,52.7,48.6,30.06,SW,225,0.0,3.4,86,0.00,,---,0.00,VWS V14.01,2013-06-05 07:16:00,
2013-06-05 00:26:00,52.7,48.6,30.03,NE,45,0.0,3.1,86,0.00,,---,0.00,VWS V14.01,2013-06-05 07:26:00,
2013-06-05 00:31:00,52.5,48.5,30.03,ENE,68,0.0,3.4,86,0.00,,---,0.00,VWS V14.01,2013-06-05 07:31:00,
2013-06-05 00:36:00,52.5,48.2,30.03,WSW,248,2.7,4.0,85,0.00,,---,0.00,VWS V14.01,2013-06-05 07:36:00,
2013-06-05 00:46:00,52.7,49.0,30.06,WNW,292,2.0,6.5,87,0.00,,---,0.00,VWS V14.01,2013-06-05 07:46:00,
2013-06-05 00:56:00,52.5,48.8,30.06,NW,315,0.0,3.8,87,0.00,,---,0.00,VWS V14.01,2013-06-05 07:56:00,
2013-06-05 01:01:00,52.5,48.8,30.06,West,270,2.9,4.0,87,0.00,,---,0.00,VWS V14.01,2013-06-05 08:01:00,
2013-06-05 01:06:00,52.7,49.0,30.06,NNW,338,3.4,3.6,87,0.00,,---,0.00,VWS V14.01,2013-06-05 08:06:00,
2013-06-05 01:11:00,52.9,49.4,30.03,WSW,248,1.3,4.0,88,0.00,,---,0.00,VWS V14.01,2013-06-05 08:11:00,
2013-06-05 01:16:00,53.1,49.3,30.03,NNW,338,1.1,3.1,87,0.00,,---,0.00,VWS V14.01,2013-06-05 08:16:00,
2013-06-05 01:21:00,53.1,49.3,30.03,WNW,292,1.6,5.6,87,0.00,,---,0.00,VWS V14.01,2013-06-05 08:21:00,
2013-06-05 01:26:00,53.4,49.7,30.03,SW,225,2.9,4.9,87,0.00,,---,0.00,VWS V14.01,2013-06-05 08:26:00,
2013-06-05 01:31:00,53.4,49.3,30.03,WSW,248,1.6,7.2,86,0.00,,---,0.00,VWS V14.01,2013-06-05 08:31:00,
2013-06-05 01:36:00,53.6,49.2,30.03,NE,45,0.0,2.2,85,0.00,,---,0.00,VWS V14.01,2013-06-05 08:36:00,
2013-06-05 01:41:00,53.6,49.2,30.06,SSW,202,1.1,4.3,85,0.00,,---,0.00,VWS V14.01,2013-06-05 08:41:00,
2013-06-05 01:46:00,53.8,49.1,30.06,SW,225,3.1,3.6,84,0.00,,---,0.00,VWS V14.01,2013-06-05 08:46:00,
2013-06-05 01:56:00,53.8,49.1,30.03,SSW,202,2.2,6.0,84,0.00,,---,0.00,VWS V14.01,2013-06-05 08:56:00,
2013-06-05 02:01:00,53.8,49.1,30.03,SSW,202,2.2,2.9,84,0.00,,---,0.00,VWS V14.01,2013-06-05 09:01:00,
2013-06-05 02:11:00,53.8,48.8,30.06,WSW,248,1.1,4.7,83,0.00,,---,0.00,VWS V14.01,2013-06-05 09:11:00,
2013-06-05 02:16:00,53.8,48.8,30.06,WSW,248,0.0,3.1,83,0.00,,---,0.00,VWS V14.01,2013-06-05 09:16:00,
2013-06-05 02:21:00,53.8,48.8,30.06,WSW,248,3.1,3.8,83,0.00,,---,0.00,VWS V14.01,2013-06-05 09:21:00,
2013-06-05 02:26:00,53.8,48.8,30.06,WSW,248,0.0,4.0,83,0.00,,---,0.00,VWS V14.01,2013-06-05 09:26:00,
2013-06-05 02:31:00,54.0,48.9,30.06,WSW,248,0.0,2.5,83,0.00,,---,0.00,VWS V14.01,2013-06-05 09:31:00,
2013-06-05 02:36:00,54.0,48.6,30.06,West,270,0.0,2.7,82,0.00,,---,0.00,VWS V14.01,2013-06-05 09:36:00,
2013-06-05 02:46:00,54.0,48.6,30.06,WSW,248,0.0,2.0,82,0.00,,---,0.00,VWS V14.01,2013-06-05 09:46:00,
2013-06-05 02:56:00,54.0,48.9,30.03,SW,225,1.1,5.4,83,0.00,,---,0.00,VWS V14.01,2013-06-05 09:56:00,
2013-06-05 03:01:00,54.0,48.9,30.03,SSW,202,2.0,3.4,83,0.00,,---,0.00,VWS V14.01,2013-06-05 10:01:00,
2013-06-05 03:06:00,54.0,48.9,30.03,SSW,202,1.3,5.4,83,0.00,,---,0.00,VWS V14.01,2013-06-05 10:06:00,
2013-06-05 03:11:00,54.0,48.9,30.06,SW,225,2.9,3.1,83,0.00,,---,0.00,VWS V14.01,2013-06-05 10:11:00,
2013-06-05 03:21:00,54.0,48.9,30.06,SSW,202,0.0,4.0,83,0.00,,---,0.00,VWS V14.01,2013-06-05 10:21:00,
2013-06-05 03:26:00,54.0,48.9,30.03,WNW,292,0.0,4.0,83,0.00,,---,0.00,VWS V14.01,2013-06-05 10:26:00,
2013-06-05 03:31:00,54.0,48.9,30.03,WNW,292,0.0,2.2,83,0.00,,---,0.00,VWS V14.01,2013-06-05 10:31:00,
2013-06-05 03:36:00,54.0,48.6,30.03,NNW,338,2.5,3.6,82,0.00,,---,0.00,VWS V14.01,2013-06-05 10:36:00,
2013-06-05 03:46:00,54.0,48.6,30.03,WSW,248,0.9,3.8,82,0.00,,---,0.00,VWS V14.01,2013-06-05 10:46:00,
2013-06-05 03:56:00,54.0,48.6,30.03,NNW,338,1.6,3.4,82,0.00,,---,0.00,VWS V14.01,2013-06-05 10:56:00,
2013-06-05 04:01:00,54.0,48.6,30.03,SSE,158,2.9,3.8,82,0.00,,---,0.00,VWS V14.01,2013-06-05 11:01:00,
2013-06-05 04:06:00,54.0,48.6,30.03,NNW,338,1.6,4.3,82,0.00,,---,0.00,VWS V14.01,2013-06-05 11:06:00,
2013-06-05 04:11:00,54.0,48.6,30.06,NNW,338,2.0,2.5,82,0.00,,---,0.00,VWS V14.01,2013-06-05 11:11:00,
2013-06-05 04:21:00,53.8,48.4,30.06,WSW,248,0.0,2.5,82,0.00,,---,0.00,VWS V14.01,2013-06-05 11:21:00,
2013-06-05 04:31:00,53.8,48.4,30.03,SW,225,2.0,3.4,82,0.00,,---,0.00,VWS V14.01,2013-06-05 11:31:00,
2013-06-05 04:41:00,53.6,48.2,30.03,SE,135,1.1,2.5,82,0.00,,---,0.00,VWS V14.01,2013-06-05 11:41:00,
2013-06-05 04:46:00,53.6,48.2,30.03,SW,225,0.0,5.4,82,0.00,,---,0.00,VWS V14.01,2013-06-05 11:46:00,
2013-06-05 04:56:00,53.4,48.4,30.06,WSW,248,3.6,3.6,83,0.00,,---,0.00,VWS V14.01,2013-06-05 11:56:00,
2013-06-05 05:01:00,53.4,48.4,30.06,WSW,248,0.0,3.6,83,0.00,,---,0.00,VWS V14.01,2013-06-05 12:01:00,
2013-06-05 05:11:00,53.2,48.2,30.06,WSW,248,2.5,4.3,83,0.00,,---,0.00,VWS V14.01,2013-06-05 12:11:00,
2013-06-05 05:16:00,53.2,48.5,30.06,West,270,2.5,3.8,84,0.00,,---,0.00,VWS V14.01,2013-06-05 12:16:00,
2013-06-05 05:26:00,53.2,48.2,30.06,WNW,292,0.0,2.5,83,0.00,,---,0.00,VWS V14.01,2013-06-05 12:26:00,
2013-06-05 05:31:00,53.2,48.2,30.06,WSW,248,2.0,3.4,83,0.00,,---,0.00,VWS V14.01,2013-06-05 12:31:00,
2013-06-05 05:36:00,53.2,48.5,30.06,West,270,0.0,3.1,84,0.00,,---,0.00,VWS V14.01,2013-06-05 12:36:00,
2013-06-05 05:41:00,53.2,48.5,30.06,WSW,248,0.0,4.3,84,0.00,,---,0.00,VWS V14.01,2013-06-05 12:41:00,
2013-06-05 05:46:00,53.2,48.5,30.06,SSE,158,2.7,2.7,84,0.00,,---,0.00,VWS V14.01,2013-06-05 12:46:00,
2013-06-05 05:56:00,53.2,48.5,30.06,WSW,248,1.6,4.3,84,0.00,,---,0.00,VWS V14.01,2013-06-05 12:56:00,
2013-06-05 06:06:00,53.2,48.5,30.06,SW,225,1.6,3.6,84,0.00,,---,0.00,VWS V14.01,2013-06-05 13:06:00,
2013-06-05 06:16:00,53.2,48.5,30.06,SW,225,1.6,3.4,84,0.00,,---,0.00,VWS V14.01,2013-06-05 13:16:00,
2013-06-05 06:26:00,53.2,48.2,30.06,NW,315,2.9,4.0,83,0.00,,---,0.00,VWS V14.01,2013-06-05 13:26:00,
2013-06-05 06:31:00,53.2,48.2,30.06,West,270,2.2,2.9,83,0.00,,---,0.00,VWS V14.01,2013-06-05 13:31:00,
2013-06-05 06:41:00,53.4,48.4,30.06,WSW,248,1.1,2.7,83,0.00,,---,0.00,VWS V14.01,2013-06-05 13:41:00,
2013-06-05 06:46:00,53.6,48.2,30.06,WSW,248,2.5,2.9,82,0.00,,---,0.00,VWS V14.01,2013-06-05 13:46:00,
2013-06-05 06:56:00,53.8,48.4,30.06,SW,225,0.0,2.7,82,0.00,,---,0.00,VWS V14.01,2013-06-05 13:56:00,
2013-06-05 07:01:00,53.8,48.4,30.06,NNW,338,2.9,2.9,82,0.00,,---,0.00,VWS V14.01,2013-06-05 14:01:00,
2013-06-05 07:06:00,54.0,48.6,30.06,WNW,292,0.0,2.9,82,0.00,,---,0.00,VWS V14.01,2013-06-05 14:06:00,
2013-06-05 07:16:00,54.1,48.5,30.06,NNW,338,1.6,4.0,81,0.00,,---,0.00,VWS V14.01,2013-06-05 14:16:00,
2013-06-05 07:26:00,54.5,48.8,30.06,WSW,248,0.0,2.9,81,0.00,,---,0.00,VWS V14.01,2013-06-05 14:26:00,
2013-06-05 07:31:00,54.9,49.2,30.06,WNW,292,0.0,3.1,81,0.00,,---,0.00,VWS V14.01,2013-06-05 14:31:00,
2013-06-05 07:41:00,55.0,49.0,30.03,NNW,338,0.0,4.0,80,0.00,,---,0.00,VWS V14.01,2013-06-05 14:41:00,
2013-06-05 07:46:00,55.4,49.0,30.03,WSW,248,0.0,3.8,79,0.00,,---,0.00,VWS V14.01,2013-06-05 14:46:00,
2013-06-05 07:56:00,55.8,49.0,30.03,WNW,292,1.1,3.4,78,0.00,,---,0.00,VWS V14.01,2013-06-05 14:56:00,
2013-06-05 08:06:00,55.8,48.3,30.03,WSW,248,0.0,4.9,76,0.00,,---,0.00,VWS V14.01,2013-06-05 15:06:00,
2013-06-05 08:11:00,55.9,48.5,30.06,WSW,248,3.4,4.0,76,0.00,,---,0.00,VWS V14.01,2013-06-05 15:11:00,
2013-06-05 08:16:00,55.9,48.1,30.06,SW,225,3.4,3.8,75,0.00,,---,0.00,VWS V14.01,2013-06-05 15:16:00,
2013-06-05 08:26:00,56.5,49.0,30.06,NNE,22,1.3,2.0,76,0.00,,---,0.00,VWS V14.01,2013-06-05 15:26:00,
2013-06-05 08:31:00,56.8,49.0,30.06,North,0,0.9,3.1,75,0.00,,---,0.00,VWS V14.01,2013-06-05 15:31:00,
2013-06-05 08:41:00,57.2,48.6,30.06,NW,315,0.0,3.8,73,0.00,,---,0.00,VWS V14.01,2013-06-05 15:41:00,
2013-06-05 08:46:00,57.6,49.0,30.06,WSW,248,0.0,2.5,73,0.00,,---,0.00,VWS V14.01,2013-06-05 15:46:00,
2013-06-05 08:56:00,57.9,49.0,30.06,West,270,1.3,3.8,72,0.00,,---,0.00,VWS V14.01,2013-06-05 15:56:00,
2013-06-05 09:01:00,58.3,49.3,30.06,SSE,158,2.0,2.5,72,0.00,,---,0.00,VWS V14.01,2013-06-05 16:01:00,
2013-06-05 09:11:00,59.2,49.4,30.06,SW,225,2.5,3.8,70,0.00,,---,0.00,VWS V14.01,2013-06-05 16:11:00,
2013-06-05 09:16:00,59.0,48.5,30.06,North,0,2.5,4.0,68,0.00,,---,0.00,VWS V14.01,2013-06-05 16:16:00,
2013-06-05 09:21:00,59.2,48.6,30.06,WSW,248,1.6,3.8,68,0.00,,---,0.00,VWS V14.01,2013-06-05 16:21:00,
2013-06-05 09:26:00,59.4,48.8,30.06,NW,315,0.0,4.7,68,0.00,,---,0.00,VWS V14.01,2013-06-05 16:26:00,
2013-06-05 09:31:00,60.1,49.5,30.06,NE,45,0.0,3.1,68,0.00,,---,0.00,VWS V14.01,2013-06-05 16:31:00,
2013-06-05 09:36:00,60.4,49.4,30.06,WSW,248,0.9,3.6,67,0.00,,---,0.00,VWS V14.01,2013-06-05 16:36:00,
2013-06-05 09:47:00,61.0,48.7,30.06,NW,315,1.6,4.7,64,0.00,,---,0.00,VWS V14.01,2013-06-05 16:47:00,
2013-06-05 09:56:00,61.7,48.6,30.06,SSW,202,2.5,4.9,62,0.00,,---,0.00,VWS V14.01,2013-06-05 16:56:00,
2013-06-05 10:01:00,61.9,48.3,30.06,NW,315,3.6,4.7,61,0.00,,---,0.00,VWS V14.01,2013-06-05 17:01:00,
2013-06-05 10:11:00,63.0,48.4,30.06,WNW,292,0.0,3.6,59,0.00,,---,0.00,VWS V14.01,2013-06-05 17:11:00,
2013-06-05 10:16:00,64.0,49.4,30.06,SSW,202,2.9,2.9,59,0.00,,---,0.00,VWS V14.01,2013-06-05 17:16:00,
2013-06-05 10:21:00,64.8,49.2,30.06,ENE,68,0.9,4.9,57,0.00,,---,0.00,VWS V14.01,2013-06-05 17:21:00,
2013-06-05 10:26:00,65.5,48.4,30.06,WSW,248,0.9,3.4,54,0.00,,---,0.00,VWS V14.01,2013-06-05 17:26:00,
2013-06-05 10:31:00,65.5,47.9,30.06,WNW,292,1.1,4.9,53,0.00,,---,0.00,VWS V14.01,2013-06-05 17:31:00,
2013-06-05 10:36:00,66.2,47.0,30.06,NNW,338,4.5,4.5,50,0.00,,---,0.00,VWS V14.01,2013-06-05 17:36:00,
2013-06-05 10:46:00,68.2,47.2,30.06,NE,45,2.9,4.0,47,0.00,,---,0.00,VWS V14.01,2013-06-05 17:46:00,
2013-06-05 10:56:00,69.8,47.5,30.06,NW,315,0.9,3.8,45,0.00,,---,0.00,VWS V14.01,2013-06-05 17:56:00,
2013-06-05 11:01:00,70.5,47.6,30.06,WSW,248,6.0,6.0,44,0.00,,---,0.00,VWS V14.01,2013-06-05 18:01:00,
2013-06-05 11:11:00,71.4,47.8,30.06,SSW,202,1.6,3.8,43,0.00,,---,0.00,VWS V14.01,2013-06-05 18:11:00,
2013-06-05 11:16:00,70.9,46.0,30.06,WNW,292,2.5,6.0,41,0.00,,---,0.00,VWS V14.01,2013-06-05 18:16:00,
2013-06-05 11:26:00,72.3,46.7,30.06,North,0,3.6,5.6,40,0.00,,---,0.00,VWS V14.01,2013-06-05 18:26:00,
2013-06-05 11:31:00,72.3,46.7,30.06,SSW,202,3.4,4.9,40,0.00,,---,0.00,VWS V14.01,2013-06-05 18:31:00,
2013-06-05 11:41:00,73.8,48.0,30.06,ENE,68,1.3,6.0,40,0.00,,---,0.00,VWS V14.01,2013-06-05 18:41:00,
2013-06-05 11:46:00,73.9,46.0,30.06,SSW,202,1.1,6.0,37,0.00,,---,0.00,VWS V14.01,2013-06-05 18:46:00,
2013-06-05 11:56:00,73.8,45.2,30.06,SW,225,4.0,4.3,36,0.00,,---,0.00,VWS V14.01,2013-06-05 18:56:00,
2013-06-05 12:01:00,73.2,44.0,30.06,West,270,2.7,6.0,35,0.00,,---,0.00,VWS V14.01,2013-06-05 19:01:00,
2013-06-05 12:06:00,74.3,45.7,30.06,WSW,248,1.3,4.7,36,0.00,,---,0.00,VWS V14.01,2013-06-05 19:06:00,
2013-06-05 12:11:00,75.0,45.5,30.03,North,0,2.0,4.0,35,0.00,,---,0.00,VWS V14.01,2013-06-05 19:11:00,
2013-06-05 12:21:00,76.1,46.5,30.03,NNW,338,0.9,5.4,35,0.00,,---,0.00,VWS V14.01,2013-06-05 19:21:00,
2013-06-05 12:31:00,73.6,43.5,30.06,WSW,248,5.8,6.5,34,0.00,,---,0.00,VWS V14.01,2013-06-05 19:31:00,
2013-06-05 12:41:00,75.0,45.5,30.03,SW,225,1.3,5.4,35,0.00,,---,0.00,VWS V14.01,2013-06-05 19:41:00,
2013-06-05 12:47:00,76.3,46.7,30.03,SW,225,2.7,4.7,35,0.00,,---,0.00,VWS V14.01,2013-06-05 19:47:00,
2013-06-05 12:56:00,75.7,44.6,30.06,SSW,202,2.5,4.0,33,0.00,,---,0.00,VWS V14.01,2013-06-05 19:56:00,
2013-06-05 13:01:00,74.7,43.7,30.06,WSW,248,1.1,4.9,33,0.00,,---,0.00,VWS V14.01,2013-06-05 20:01:00,
2013-06-05 13:06:00,75.7,45.4,30.06,WSW,248,2.9,4.9,34,0.00,,---,0.00,VWS V14.01,2013-06-05 20:06:00,
2013-06-05 13:16:00,74.5,43.5,30.06,West,270,2.5,7.6,33,0.00,,---,0.00,VWS V14.01,2013-06-05 20:16:00,
2013-06-05 13:26:00,76.5,45.2,30.06,WSW,248,4.7,6.3,33,0.00,,---,0.00,VWS V14.01,2013-06-05 20:26:00,
2013-06-05 13:31:00,76.5,45.2,30.06,WSW,248,2.9,6.5,33,0.00,,---,0.00,VWS V14.01,2013-06-05 20:31:00,
2013-06-05 13:41:00,76.3,44.3,30.06,NNE,22,4.0,4.3,32,0.00,,---,1.25,VWS V14.01,2013-06-05 20:41:00,
2013-06-05 13:46:00,76.3,44.3,30.06,NW,315,4.3,6.0,32,0.00,,---,1.25,VWS V14.01,2013-06-05 20:46:00,
2013-06-05 13:56:00,74.8,43.8,30.06,North,0,4.9,7.2,33,0.00,,---,1.25,VWS V14.01,2013-06-05 20:56:00,
2013-06-05 14:06:00,77.4,45.2,30.06,West,270,0.0,4.9,32,0.00,,---,1.25,VWS V14.01,2013-06-05 21:06:00,
2013-06-05 14:16:00,76.8,44.8,30.06,West,270,2.2,6.3,32,0.00,,---,0.00,VWS V14.01,2013-06-05 21:16:00,
2013-06-05 14:26:00,76.8,44.8,30.03,WSW,248,3.6,5.6,32,0.00,,---,0.00,VWS V14.01,2013-06-05 21:26:00,
2013-06-05 14:31:00,77.4,44.4,30.03,NNW,338,3.6,3.8,31,0.00,,---,0.00,VWS V14.01,2013-06-05 21:31:00,
2013-06-05 14:41:00,75.6,43.7,30.03,SW,225,7.2,7.2,32,0.00,,---,0.00,VWS V14.01,2013-06-05 21:41:00,
2013-06-05 14:46:00,75.4,43.5,30.03,North,0,2.7,7.6,32,0.00,,---,1.25,VWS V14.01,2013-06-05 21:46:00,
2013-06-05 14:56:00,76.1,44.1,30.03,WSW,248,3.1,5.4,32,0.00,,---,1.25,VWS V14.01,2013-06-05 21:56:00,
2013-06-05 15:01:00,76.3,44.3,30.03,NNW,338,2.7,5.6,32,0.00,,---,1.25,VWS V14.01,2013-06-05 22:01:00,
2013-06-05 15:06:00,76.3,44.3,30.03,NNE,22,3.8,7.8,32,0.00,,---,0.00,VWS V14.01,2013-06-05 22:06:00,
2013-06-05 15:16:00,76.1,44.1,30.03,NE,45,6.7,7.2,32,0.00,,---,0.00,VWS V14.01,2013-06-05 22:16:00,
2013-06-05 15:26:00,75.7,43.8,30.03,SSE,158,2.5,6.3,32,0.00,,---,1.25,VWS V14.01,2013-06-05 22:26:00,
2013-06-05 15:31:00,75.9,44.0,30.03,NNW,338,2.9,4.3,32,0.00,,---,0.00,VWS V14.01,2013-06-05 22:31:00,
2013-06-05 15:36:00,76.1,44.1,30.03,South,180,2.7,7.2,32,0.00,,---,1.25,VWS V14.01,2013-06-05 22:36:00,
2013-06-05 15:41:00,75.6,43.7,30.03,NNW,338,2.7,5.6,32,0.00,,---,1.25,VWS V14.01,2013-06-05 22:41:00,
2013-06-05 15:47:00,75.2,43.3,30.03,NNE,22,2.5,7.6,32,0.00,,---,1.25,VWS V14.01,2013-06-05 22:47:00,
2013-06-05 15:56:00,74.8,43.8,30.03,SW,225,5.6,6.7,33,0.00,,---,1.25,VWS V14.01,2013-06-05 22:56:00,
2013-06-05 16:01:00,74.8,43.8,30.03,NNE,22,2.5,5.6,33,0.00,,---,0.00,VWS V14.01,2013-06-05 23:01:00,
2013-06-05 16:11:00,75.2,43.3,30.03,ENE,68,3.6,4.9,32,0.00,,---,1.25,VWS V14.01,2013-06-05 23:11:00,
2013-06-05 16:16:00,75.7,43.8,30.03,WNW,292,3.1,5.4,32,0.00,,---,0.00,VWS V14.01,2013-06-05 23:16:00,
2013-06-05 16:21:00,75.0,44.0,30.03,SW,225,2.7,6.0,33,0.00,,---,0.00,VWS V14.01,2013-06-05 23:21:00,
2013-06-05 16:31:00,74.5,43.5,30.03,WSW,248,2.0,6.3,33,0.00,,---,1.25,VWS V14.01,2013-06-05 23:31:00,
2013-06-05 16:40:00,73.4,42.6,30.03,SW,225,3.8,7.2,33,0.00,,---,0.00,VWS V14.01,2013-06-05 23:40:00,
2013-06-05 16:46:00,73.2,43.2,30.03,NE,45,3.6,6.9,34,0.00,,---,0.00,VWS V14.01,2013-06-05 23:46:00,
2013-06-05 16:55:00,73.8,43.7,30.03,North,0,5.6,6.0,34,0.00,,---,0.00,VWS V14.01,2013-06-05 23:55:00,
2013-06-05 17:01:00,73.2,43.2,30.03,SSE,158,3.8,5.6,34,0.00,,---,0.00,VWS V14.01,2013-06-06 00:01:00,
2013-06-05 17:06:00,72.3,42.4,30.03,NNE,22,2.2,7.2,34,0.00,,---,1.25,VWS V14.01,2013-06-06 00:06:00,
2013-06-05 17:11:00,72.3,43.2,30.03,NNW,338,4.3,6.3,35,0.00,,---,1.25,VWS V14.01,2013-06-06 00:11:00,
2013-06-05 17:16:00,72.0,42.8,30.03,WSW,248,2.5,4.9,35,0.00,,---,0.00,VWS V14.01,2013-06-06 00:16:00,
2013-06-05 17:21:00,72.0,42.8,30.03,NNW,338,2.0,5.4,35,0.00,,---,1.25,VWS V14.01,2013-06-06 00:21:00,
2013-06-05 17:31:00,70.7,42.5,30.00,North,0,2.7,7.2,36,0.00,,---,0.00,VWS V14.01,2013-06-06 00:31:00,
2013-06-05 17:36:00,71.1,43.5,30.00,NW,315,1.3,6.3,37,0.00,,---,0.00,VWS V14.01,2013-06-06 00:36:00,
2013-06-05 17:41:00,70.7,43.2,30.00,ENE,68,3.1,3.4,37,0.00,,---,1.25,VWS V14.01,2013-06-06 00:41:00,
2013-06-05 17:47:00,71.1,43.5,30.00,NNW,338,2.5,7.6,37,0.00,,---,0.00,VWS V14.01,2013-06-06 00:47:00,
2013-06-05 17:55:00,69.3,43.3,30.00,NNE,22,2.5,6.9,39,0.00,,---,0.00,VWS V14.01,2013-06-06 00:55:00,
2013-06-05 18:01:00,69.3,43.3,30.00,SSW,202,2.0,7.4,39,0.00,,---,0.00,VWS V14.01,2013-06-06 01:01:00,
2013-06-05 18:06:00,68.5,43.3,30.00,West,270,4.0,6.7,40,0.00,,---,1.25,VWS V14.01,2013-06-06 01:06:00,
2013-06-05 18:11:00,67.8,43.9,30.00,WSW,248,2.9,7.6,42,0.00,,---,1.25,VWS V14.01,2013-06-06 01:11:00,
2013-06-05 18:16:00,66.9,43.1,30.00,SW,225,2.5,3.6,42,0.00,,---,0.00,VWS V14.01,2013-06-06 01:16:00,
2013-06-05 18:25:00,64.2,43.0,30.00,NNW,338,1.6,9.8,46,0.00,,---,0.00,VWS V14.01,2013-06-06 01:25:00,
2013-06-05 18:31:00,63.0,43.0,30.00,WSW,248,1.3,7.2,48,0.00,,---,0.00,VWS V14.01,2013-06-06 01:31:00,
2013-06-05 18:36:00,63.0,43.5,30.00,WSW,248,1.6,6.0,49,0.00,,---,1.25,VWS V14.01,2013-06-06 01:36:00,
2013-06-05 18:48:00,61.7,43.4,30.00,SSW,202,1.6,4.0,51,0.00,,---,0.00,VWS V14.01,2013-06-06 01:48:00,
2013-06-05 18:55:00,60.4,44.2,30.00,SE,135,3.1,4.7,55,0.00,,---,0.00,VWS V14.01,2013-06-06 01:55:00,
2013-06-05 19:01:00,59.9,44.2,30.00,WSW,248,2.5,3.8,56,0.00,,---,0.00,VWS V14.01,2013-06-06 02:01:00,
2013-06-05 19:06:00,59.5,44.8,30.00,West,270,2.0,6.5,58,0.00,,---,1.25,VWS V14.01,2013-06-06 02:06:00,
2013-06-05 19:11:00,59.2,44.9,30.00,WSW,248,1.3,4.3,59,0.00,,---,1.25,VWS V14.01,2013-06-06 02:11:00,
2013-06-05 19:16:00,58.6,44.8,30.00,SW,225,1.3,6.3,60,0.00,,---,0.00,VWS V14.01,2013-06-06 02:16:00,
2013-06-05 19:25:00,58.5,45.1,30.00,SW,225,0.9,3.1,61,0.00,,---,0.00,VWS V14.01,2013-06-06 02:25:00,
2013-06-05 19:30:00,58.1,45.6,30.00,WSW,248,2.0,5.8,63,0.00,,---,1.25,VWS V14.01,2013-06-06 02:30:00,
2013-06-05 19:35:00,57.9,45.4,30.00,SSW,202,1.6,4.7,63,0.00,,---,0.00,VWS V14.01,2013-06-06 02:35:00,
2013-06-05 19:41:00,57.9,45.8,30.00,WSW,248,2.5,4.7,64,0.00,,---,0.00,VWS V14.01,2013-06-06 02:41:00,
2013-06-05 19:46:00,57.6,45.5,30.00,SE,135,0.0,4.0,64,0.00,,---,1.25,VWS V14.01,2013-06-06 02:46:00,
2013-06-05 19:55:00,56.8,46.0,30.00,NE,45,0.0,5.4,67,0.00,,---,0.00,VWS V14.01,2013-06-06 02:55:00,
2013-06-05 20:00:00,56.7,45.8,30.00,NNW,338,1.6,2.9,67,0.00,,---,0.00,VWS V14.01,2013-06-06 03:00:00,
2013-06-05 20:05:00,56.3,45.9,30.00,NNW,338,2.7,4.9,68,0.00,,---,1.25,VWS V14.01,2013-06-06 03:05:00,
2013-06-05 20:10:00,56.1,46.1,30.00,North,0,2.0,3.8,69,0.00,,---,0.00,VWS V14.01,2013-06-06 03:10:00,
2013-06-05 20:15:00,55.8,45.8,30.00,NNW,338,0.0,2.0,69,0.00,,---,0.00,VWS V14.01,2013-06-06 03:15:00,
2013-06-05 20:20:00,55.6,45.2,30.00,NNW,338,1.6,2.5,68,0.00,,---,0.00,VWS V14.01,2013-06-06 03:20:00,
2013-06-05 20:25:00,55.2,45.2,30.00,SW,225,0.0,2.0,69,0.00,,---,0.00,VWS V14.01,2013-06-06 03:25:00,
2013-06-05 20:30:00,54.9,45.3,30.00,WSW,248,0.0,2.9,70,0.00,,---,0.00,VWS V14.01,2013-06-06 03:30:00,
2013-06-05 20:35:00,54.5,45.3,30.00,WNW,292,0.0,3.8,71,0.00,,---,0.00,VWS V14.01,2013-06-06 03:35:00,
2013-06-05 20:40:00,54.3,45.1,30.03,NNW,338,0.0,0.0,71,0.00,,---,1.25,VWS V14.01,2013-06-06 03:40:00,
2013-06-05 20:48:00,54.1,45.3,30.03,WSW,248,1.6,4.7,72,0.00,,---,0.00,VWS V14.01,2013-06-06 03:48:00,
2013-06-05 20:55:00,53.8,45.7,30.03,NNW,338,1.6,3.4,74,0.00,,---,0.00,VWS V14.01,2013-06-06 03:55:00,
2013-06-05 21:01:00,53.6,46.2,30.03,WSW,248,3.4,4.3,76,0.00,,---,1.25,VWS V14.01,2013-06-06 04:01:00,
2013-06-05 21:05:00,53.4,46.1,30.03,NW,315,0.0,3.6,76,0.00,,---,1.25,VWS V14.01,2013-06-06 04:05:00,
2013-06-05 21:10:00,53.2,45.5,30.03,NNW,338,0.9,1.6,75,0.00,,---,1.25,VWS V14.01,2013-06-06 04:10:00,
2013-06-05 21:11:00,53.2,45.5,30.03,NNW,338,0.9,1.6,75,0.00,,---,0.00,VWS V14.01,2013-06-06 04:11:00,
2013-06-05 21:20:00,53.1,46.0,30.03,West,270,0.0,3.1,77,0.00,,---,0.00,VWS V14.01,2013-06-06 04:20:00,
2013-06-05 21:26:00,52.9,45.9,30.03,NW,315,0.0,2.0,77,0.00,,---,1.25,VWS V14.01,2013-06-06 04:26:00,
2013-06-05 21:31:00,52.9,46.2,30.03,NNE,22,1.6,2.7,78,0.00,,---,0.00,VWS V14.01,2013-06-06 04:31:00,
2013-06-05 21:40:00,53.1,46.7,30.03,NNW,338,1.3,2.5,79,0.00,,---,0.00,VWS V14.01,2013-06-06 04:40:00,
2013-06-05 21:46:00,53.1,47.1,30.03,ENE,68,0.0,3.6,80,0.00,,---,0.00,VWS V14.01,2013-06-06 04:46:00,
2013-06-05 21:55:00,53.1,47.4,30.03,SSE,158,0.0,3.4,81,0.00,,---,0.00,VWS V14.01,2013-06-06 04:55:00,
2013-06-05 22:00:00,52.9,46.9,30.03,West,270,2.0,2.7,80,0.00,,---,0.00,VWS V14.01,2013-06-06 05:00:00,
2013-06-05 22:05:00,52.9,47.2,30.03,WNW,292,1.3,3.6,81,0.00,,---,0.00,VWS V14.01,2013-06-06 05:05:00,
2013-06-05 22:10:00,52.7,47.0,30.03,East,90,1.6,5.8,81,0.00,,---,1.25,VWS V14.01,2013-06-06 05:10:00,
2013-06-05 22:15:00,52.7,47.0,30.03,NW,315,1.6,7.6,81,0.00,,---,1.25,VWS V14.01,2013-06-06 05:15:00,
2013-06-05 22:20:00,52.7,47.4,30.03,WNW,292,1.1,3.4,82,0.00,,---,1.25,VWS V14.01,2013-06-06 05:20:00,
2013-06-05 22:25:00,52.7,47.7,30.03,NNE,22,0.0,4.9,83,0.00,,---,1.25,VWS V14.01,2013-06-06 05:25:00,
2013-06-05 22:30:00,52.7,47.7,30.03,NNE,22,0.0,3.8,83,0.00,,---,1.25,VWS V14.01,2013-06-06 05:30:00,
2013-06-05 22:35:00,52.7,47.7,30.03,WNW,292,0.0,3.1,83,0.00,,---,0.00,VWS V14.01,2013-06-06 05:35:00,
2013-06-05 22:40:00,52.7,48.0,30.03,NNE,22,0.9,4.0,84,0.00,,---,0.00,VWS V14.01,2013-06-06 05:40:00,
2013-06-05 22:46:00,52.7,48.0,30.03,NNE,22,0.0,4.0,84,0.00,,---,0.00,VWS V14.01,2013-06-06 05:46:00,
2013-06-05 22:55:00,52.5,47.5,30.03,North,0,0.0,2.0,83,0.00,,---,0.00,VWS V14.01,2013-06-06 05:55:00,
2013-06-05 23:00:00,52.5,47.5,30.03,West,270,1.1,3.1,83,0.00,,---,1.25,VWS V14.01,2013-06-06 06:00:00,
2013-06-05 23:05:00,52.5,47.5,30.03,West,270,1.1,3.4,83,0.00,,---,0.00,VWS V14.01,2013-06-06 06:05:00,
2013-06-05 23:10:00,52.5,47.8,30.03,NNW,338,1.1,3.6,84,0.00,,---,0.00,VWS V14.01,2013-06-06 06:10:00,
2013-06-05 23:15:00,52.5,47.8,30.03,SW,225,0.0,2.5,84,0.00,,---,1.25,VWS V14.01,2013-06-06 06:15:00,
2013-06-05 23:20:00,52.7,48.0,30.03,NNE,22,0.0,2.5,84,0.00,,---,1.25,VWS V14.01,2013-06-06 06:20:00,
2013-06-05 23:25:00,52.7,48.0,30.03,WSW,248,0.0,2.5,84,0.00,,---,1.25,VWS V14.01,2013-06-06 06:25:00,
2013-06-05 23:30:00,52.7,48.0,30.03,WSW,248,1.1,3.8,84,0.00,,---,1.25,VWS V14.01,2013-06-06 06:30:00,
2013-06-05 23:35:00,52.7,48.0,30.03,ESE,112,1.3,2.7,84,0.00,,---,1.25,VWS V14.01,2013-06-06 06:35:00,
2013-06-05 23:40:00,52.7,48.0,30.03,SSW,202,1.3,3.4,84,0.00,,---,1.25,VWS V14.01,2013-06-06 06:40:00,
2013-06-05 23:46:00,52.7,48.0,30.03,South,180,1.1,4.9,84,0.00,,---,0.00,VWS V14.01,2013-06-06 06:46:00,
2013-06-05 23:55:00,52.9,48.2,30.03,ENE,68,2.5,2.5,84,0.00,,---,0.00,VWS V14.01,2013-06-06 06:55:00,